Home   Weather   Bandar Seri Begawan   Past weeks

Flag for Brunei Past Weather in Bandar Seri Begawan, Brunei — Yesterday and Last 2 Weeks

88 °F

Partly sunny.

Feels Like: 98 °F
Forecast: 78 / 89 °F
Wind: 5 mph from South

Location: Brunei Airport

Current Time: Oct 22, 2016 at 9:53:10 AM

Latest Report: Oct 22, 2016 at 9:30 AM

Visibility: N/A

Pressure: 29.86 "Hg

Humidity: 66%

Dew Point: 75 °F

Location of Bandar Seri BegawanLocation

Past Weather in Bandar Seri Begawan — Graph


Bandar Seri Begawan Temperature Yesterday

Maximum temperature yesterday: 91 °F (at 3:30 PM)
Minimum temperature yesterday: 75 °F (at 2:30 AM)
Average temperature yesterday: 82 °F

High & Low Weather Summary for the Past Weeks

High91 °F (Oct 11, 12:00 PM)100% (Oct 8, 11:30 PM)29.92 "Hg (Oct 8, 11:30 PM)
Low75 °F (Oct 8, 11:30 PM)52% (Oct 13, 12:00 PM)29.68 "Hg (Oct 13, 3:00 PM)
Average82 °F83%29.80 "Hg
* Reported Oct 7 8:00 AM — Oct 22 8:00 AM, Bandar Seri Begawan, Weather by CustomWeather, © 2016

Note: Actual official high and low records may vary slightly from our data, if they occured in-between our weather recording intervals... More about our weather records


Bandar Seri Begawan Weather History for the Previous 24 Hours

Scroll right to see more
Time TempWeatherWind HumidityBarometerVisibility
8:00 AM
Sat, Oct 22
82 °FBroken clouds.3 mph84%29.83 "HgN/A
7:30 AM81 °FBroken clouds.3 mph89%29.83 "HgN/A
7:00 AM79 °FPartly sunny.3 mph94%29.83 "HgN/A
6:30 AM79 °FPartly sunny.5 mph94%29.83 "HgN/A
6:00 AM79 °FPassing clouds.5 mph89%29.83 "HgN/A
5:30 AM79 °FPassing clouds.3 mph89%29.83 "HgN/A
5:00 AM79 °FPassing clouds.3 mph94%29.83 "HgN/A
4:30 AM79 °FPassing clouds.3 mph94%29.83 "HgN/A
4:00 AM79 °FPassing clouds.5 mph94%29.83 "HgN/A
3:30 AM79 °FPassing clouds.5 mph94%29.83 "HgN/A
3:00 AM77 °FPassing clouds.5 mph100%29.83 "HgN/A
2:30 AM81 °FPassing clouds.2 mph89%29.83 "HgN/A
2:00 AM81 °FPassing clouds.1 mph89%29.83 "HgN/A
1:30 AM79 °FPassing clouds.1 mph94%29.83 "HgN/A
1:00 AM79 °FPassing clouds.2 mph94%29.83 "HgN/A
12:30 AM81 °FPassing clouds.3 mph89%29.86 "HgN/A
12:00 AM81 °FPassing clouds.5 mph89%29.86 "HgN/A
11:30 PM
Fri, Oct 21
81 °FPassing clouds.2 mph89%29.86 "HgN/A
11:00 PM81 °FPassing clouds.3 mph89%29.86 "HgN/A
10:30 PM81 °FPassing clouds.1 mph89%29.86 "HgN/A
10:00 PM81 °FPassing clouds.1 mph89%29.86 "HgN/A
9:30 PM81 °FPassing clouds.1 mph84%29.86 "HgN/A
9:00 PM82 °FPassing clouds.1 mph79%29.86 "HgN/A
8:30 PM82 °FPassing clouds.1 mph79%29.86 "HgN/A
8:00 PM84 °FPartly cloudy.2 mph74%29.83 "HgN/A
7:30 PM84 °FPartly cloudy.1 mph74%29.83 "HgN/A
7:00 PM84 °FPassing clouds.1 mph74%29.83 "HgN/A
6:30 PM84 °FPassing clouds.1 mph74%29.80 "HgN/A
6:00 PM86 °FPartly sunny.2 mph70%29.77 "HgN/A
5:30 PM88 °FPartly sunny.3 mph62%29.77 "HgN/A
5:00 PM90 °FPartly sunny.5 mph63%29.77 "HgN/A
4:30 PM90 °FPartly sunny.3 mph59%29.77 "HgN/A
4:00 PM90 °FBroken clouds.7 mph63%29.74 "HgN/A
3:30 PM91 °FPartly sunny.2 mph56%29.74 "HgN/A
3:00 PM90 °FPartly sunny.5 mph59%29.74 "HgN/A
2:30 PM90 °FBroken clouds.8 mph59%29.74 "HgN/A
2:00 PM90 °FBroken clouds.3 mph59%29.74 "HgN/A
1:30 PM90 °FBroken clouds.2 mph59%29.77 "HgN/A
1:00 PM90 °FBroken clouds.3 mph59%29.77 "HgN/A
12:30 PM90 °FPartly sunny.3 mph63%29.80 "HgN/A
12:00 PM88 °FPartly sunny.2 mph62%29.80 "HgN/A
11:30 AM86 °FPartly sunny.2 mph66%29.83 "HgN/A
11:00 AM84 °FPartly sunny.3 mph74%29.86 "HgN/A
10:30 AM82 °FPartly sunny.3 mph79%29.86 "HgN/A
10:00 AM81 °FPartly sunny.3 mph89%29.86 "HgN/A
9:30 AM81 °FPartly sunny.2 mph84%29.89 "HgN/A
9:00 AM79 °FLight rain. Partly sunny.2 mph89%29.89 "Hg6 mi
Weather by CustomWeather, © 2016

See weather overviewHow to use our weather pages